Regional Weather Roundup
Issued by NWS Albany, NY

Home | Current Version | Previous Version | Graphics & Text | Print | Product List | Glossary Off
Versions: 1 2 3 4 5 6 7 8 9 10 11 12 13 14 15 16 17 18 19 20 21 22 23 24 25 26 27 28 29 30 31 32 33 34 35 36 37 38 39 40 41 42 43 44 45 46 47 48 49 50

000
ASUS41 KALY 011110
RWRALY

NEW YORK STATE HOURLY WEATHER ROUNDUP
NATIONAL WEATHER SERVICE ALBANY NY
700 AM EDT WED APR 01 2015

NOTE: "FAIR" INDICATES FEW OR NO CLOUDS BELOW 12,000 FEET WITH NO
SIGNIFICANT WEATHER AND/OR NO OBSTRUCTIONS TO VISIBILITY.

NYZ032-033-038>043-046>054-057>066-NYZ062>081-011200-
EAST


CITY           SKY/WX    TMP DP  RH WIND       PRES   REMARKS
ALBANY         PTCLDY    26  10  50 N3        29.99R
GLENS FALLS    FAIR      19  14  81 CALM      29.99R
POUGHKEEPSIE   PTCLDY    26  23  88 CALM      29.98R
MONTGOMERY     PTCLDY    23  22  96 CALM      29.96R
WHITE PLAINS   PTCLDY    29  18  63 NW13      29.94R WCI  19
ISLIP          MOCLDY    33  20  58 N12       29.94R WCI  24
NEW YORK CITY  MOCLDY    34  22  61 N7        29.98R WCI  28
CENTRAL PARK   PTCLDY    32  19  58 CALM      30.00R
$$

NYZ005>009-017-018-044>046-055-056-011200-
CENTRAL


CITY           SKY/WX    TMP DP  RH WIND       PRES   REMARKS
FULTON         PTCLDY    20  16  84 CALM      30.04R
SYRACUSE       MOCLDY    23  18  81 NW3       30.03R
ROME           CLEAR     18  14  84 CALM      30.03R
ELMIRA         PTCLDY    25  24  96 W13       30.00R WCI  14
BINGHAMTON     CLEAR     24  19  81 NW6       29.94R WCI  17
MONTICELLO     MOCLDY    21  14  73 W5        29.94R WCI  15
$$

NYZ026>034-041>043-011200-
NORTH


CITY           SKY/WX    TMP DP  RH WIND       PRES   REMARKS
WATERTOWN      CLEAR     14  11  87 CALM      30.06R
FORT DRUM      NOT AVBL
MASSENA        CLEAR     19   7  59 CALM      30.07R
SARANAC LAKE   CLEAR      0  -5  79 CALM      29.91R
PLATTSBURGH    CLEAR     22   7  52 NW6       30.02R WCI  14
$$

NYZ001>004-010>016-019>021-011200-
WEST


CITY           SKY/WX    TMP DP  RH WIND       PRES   REMARKS
NIAGARA FALLS  PTCLDY    26  18  71 N5        30.07R WCI  20
BUFFALO        PTCLDY    25  22  88 CALM      30.06R
DUNKIRK        MOCLDY    23  21  92 SW3       30.08R
JAMESTOWN      MOCLDY    25  21  86 NW6       30.02R WCI  18
WELLSVILLE     CLEAR     24  21  88 NW12      29.98R WCI  13
ROCHESTER      MOCLDY    29  24  82 NW3       30.06R
PENN YAN       MOCLDY    30  21  69 NW9       30.01R WCI  22
$$

             KEY
       WCI = WIND CHILL INDEX
       VSB = VISIBILITY
       HX  = HEAT INDEX
$$


USA.gov is the U.S. government's official web portal to all federal, state and local government web resources and services.